GW2134 Weather Reports


Display with metric or nautical units.
time (UTC)temp
F
wind
direction
speed
MPH
gust
MPH
rain 1hr
in
rain 24hr
in
rain mn
in
humidity
%
barometer
mb
20260509211602 59 0 0.0 1.0 0.00 0.00 0.00 74 1018.6
20260509210054 59 0 0.0 4.0 0.00 0.00 0.00 73 1018.6
20260509204553 59 28 1.0 4.0 0.00 0.00 0.00 73 1018.8
20260509203101 60 0 1.0 3.0 0.00 0.00 0.00 72 1018.9
20260509201600 60 335 2.0 4.0 0.00 0.00 0.00 72 1018.9
20260509200055 60 0 0.0 3.0 0.00 0.00 0.00 71 1018.8
20260509194602 60 340 2.0 3.0 0.00 0.00 0.00 71 1018.7
20260509193056 60 336 3.0 5.0 0.00 0.00 0.00 71 1018.6
20260509191609 60 0 1.0 5.0 0.00 0.00 0.00 71 1018.4
20260509190054 61 298 3.0 6.0 0.00 0.00 0.00 69 1018.1
20260509184601 62 360 2.0 4.0 0.00 0.00 0.00 67 1018.0
20260509183055 64 0 0.0 3.0 0.00 0.00 0.00 64 1017.9
20260509181601 65 0 0.0 0.0 0.00 0.00 0.00 61 1017.9
20260509180105 66 355 1.0 4.0 0.00 0.00 0.00 60 1017.9
20260509174557 67 0 1.0 3.0 0.00 0.00 0.00 58 1017.8
20260509173105 67 0 0.0 2.0 0.00 0.00 0.00 58 1017.8
20260509171551 68 36 0.0 5.0 0.00 0.00 0.00 57 1017.6
20260509170057 68 355 1.0 3.0 0.00 0.00 0.00 57 1017.6
20260509164554 69 350 0.0 3.0 0.00 0.00 0.00 54 1017.7
20260509163056 71 123 1.0 4.0 0.00 0.00 0.00 52 1017.7
20260509161603 72 115 1.0 4.0 0.00 0.00 0.00 47 1017.9
20260509160101 72 133 1.0 5.0 0.00 0.00 0.00 48 1017.9
20260509154552 72 74 1.0 8.0 0.00 0.00 0.00 46 1018.0
20260509153058 72 192 1.0 5.0 0.00 0.00 0.00 45 1018.0
20260509151555 73 130 1.0 4.0 0.00 0.00 0.00 44 1018.2
20260509150052 72 335 0.0 7.0 0.00 0.00 0.00 45 1018.1
20260509144554 72 299 1.0 7.0 0.00 0.00 0.00 47 1018.3
20260509143058 71 74 0.0 2.0 0.00 0.00 0.00 47 1018.6
20260509141550 71 115 0.0 6.0 0.00 0.00 0.00 47 1018.8
20260509140105 71 119 0.0 4.0 0.00 0.00 0.00 45 1018.9
20260509134556 72 105 1.0 7.0 0.00 0.00 0.00 46 1019.0
20260509133054 70 283 1.0 7.0 0.00 0.00 0.00 47 1019.1
20260509131556 71 0 0.0 4.0 0.00 0.00 0.00 44 1019.1
20260509130056 71 0 1.0 4.0 0.00 0.00 0.00 43 1019.1
20260509124553 73 118 2.0 8.0 0.00 0.00 0.00 41 1019.1
20260509123057 74 78 1.0 5.0 0.00 0.00 0.00 39 1019.2
20260509121551 73 63 0.0 7.0 0.00 0.00 0.00 39 1019.4
20260509120056 73 47 0.0 8.0 0.00 0.00 0.00 37 1019.4
20260509114552 72 144 4.0 8.0 0.00 0.00 0.00 37 1019.5
20260509113055 71 140 2.0 10.0 0.00 0.00 0.00 40 1019.7
20260509111558 71 138 2.0 8.0 0.00 0.00 0.00 40 1019.8
20260509110053 71 113 2.0 8.0 0.00 0.00 0.00 38 1019.8
20260509104555 71 143 2.0 9.0 0.00 0.00 0.00 39 1020.0
20260509103104 70 128 2.0 9.0 0.00 0.00 0.00 40 1020.1
20260509101608 69 296 3.0 10.0 0.00 0.00 0.00 40 1020.2
20260509100055 68 59 2.0 9.0 0.00 0.00 0.00 41 1020.2
20260509094600 68 100 1.0 9.0 0.00 0.00 0.00 43 1020.3
20260509093052 67 128 4.0 9.0 0.00 0.00 0.00 46 1020.3
20260509091558 67 0 1.0 7.0 0.00 0.00 0.00 46 1020.3
20260509090101 66 336 1.0 7.0 0.00 0.00 0.00 48 1020.3
20260509084607 67 152 1.0 8.0 0.00 0.00 0.00 48 1020.4
20260509083111 65 131 1.0 5.0 0.00 0.00 0.00 48 1020.4
20260509081553 66 155 1.0 4.0 0.00 0.00 0.00 50 1020.5
20260509080059 64 128 1.0 4.0 0.00 0.00 0.00 55 1020.6
20260509074610 62 0 1.0 4.0 0.00 0.00 0.00 56 1020.6
20260509073105 61 0 0.0 2.0 0.00 0.00 0.00 59 1020.6
20260509071558 60 0 0.0 2.0 0.00 0.00 0.00 63 1020.6
20260509070057 59 0 0.0 3.0 0.00 0.00 0.00 65 1020.7
20260509064605 58 0 0.0 3.0 0.00 0.00 0.00 67 1020.6
20260509063104 56 93 0.0 2.0 0.00 0.00 0.00 70 1020.6
20260509061607 55 132 0.0 3.0 0.00 0.00 0.00 72 1020.6
20260509060117 55 144 0.0 2.0 0.00 0.00 0.00 75 1020.6
20260509054554 54 0 0.0 2.0 0.00 0.00 0.00 75 1020.5
20260509053117 53 0 0.0 1.0 0.00 0.00 0.00 74 1020.5
20260509051611 53 0 0.0 1.0 0.00 0.00 0.00 74 1020.4
20260509044550 52 0 0.0 3.0 0.00 0.00 0.00 72 1020.2
20260509043055 52 346 0.0 3.0 0.00 0.00 0.00 72 1020.1
20260509041551 52 0 0.0 1.0 0.00 0.00 0.00 71 1020.1
20260509040106 52 0 0.0 2.0 0.00 0.00 0.00 70 1020.2
20260509034555 52 320 3.0 8.0 0.00 0.00 0.00 70 1020.0
20260509033114 52 319 4.0 6.0 0.00 0.00 0.00 72 1020.1
20260509031558 51 0 0.0 2.0 0.00 0.00 0.00 73 1020.0
20260509030055 51 0 0.0 0.0 0.00 0.00 0.00 75 1020.1
20260509024601 51 355 2.0 5.0 0.00 0.00 0.00 75 1020.0
20260509023050 51 346 1.0 2.0 0.00 0.00 0.00 76 1020.0
20260509021553 51 0 0.0 1.0 0.00 0.00 0.00 76 1020.1
20260509020105 51 0 0.0 4.0 0.00 0.00 0.00 76 1019.9
20260509014550 51 11 1.0 3.0 0.00 0.00 0.00 76 1020.0
20260509013056 51 0 0.0 2.0 0.00 0.00 0.00 75 1020.0
20260509011558 52 200 0.0 1.0 0.00 0.00 0.00 74 1020.0
20260509010049 52 0 0.0 1.0 0.00 0.00 0.00 74 1020.0
20260509004552 52 330 2.0 4.0 0.00 0.00 0.00 74 1019.9
20260509003056 52 0 0.0 2.0 0.00 0.00 0.00 72 1020.0
20260509001551 53 0 0.0 0.0 0.00 0.00 0.00 71 1019.9
20260509000051 53 0 0.0 4.0 0.00 0.00 0.00 71 1019.8
20260508234550 53 322 2.0 5.0 0.00 0.00 0.00 70 1019.7
20260508233058 52 355 3.0 5.0 0.00 0.00 0.00 68 1019.7
20260508231556 52 330 3.0 5.0 0.00 0.00 0.00 69 1019.8
20260508230055 53 0 0.0 5.0 0.00 0.00 0.00 70 1019.8
20260508224555 53 360 4.0 5.0 0.00 0.00 0.00 70 1019.7
20260508223053 52 21 1.0 3.0 0.00 0.00 0.00 72 1019.9
20260508221555 52 312 0.0 1.0 0.00 0.00 0.00 73 1019.9
20260508214554 53 0 1.0 3.0 0.00 0.00 0.00 73 1019.8
20260508213100 53 0 0.0 1.0 0.00 0.00 0.00 73 1019.7